[[{"header":{"parameterUnit":"m.s-1","parameterCategory":1,"la1":30.2991,"la2":30.254,"lo1":-89.0895,"lo2":-89.0444,"dy":0.0017,"dx":0.0017,"nx":28,"ny":28,"refTime":"2023-08-13T03:00:00:Z","depth":0,"parameterNumber":2,"parameterNumberName":"U-component_of_WINDS"},"data":[0,0,0,0,0,0,0,0,0,0,0,0,0,0,0,0,0,0,0,0,0,0,0,0,0,0,0,0,0,0,0,0,0,0,0,0,0,0,0,0,0,0,0,0,0,0,0,0,0,0,0,0,0,0,0,0,0,0,2.1563,2.1563,0,2.159,2.1591,2.1591,2.1588,2.1587,2.1587,2.1587,2.1616,2.1617,2.1618,0,0,0,0,0,0,0,0,0,0,0,0,0,2.1509,2.151,2.1563,2.1563,2.1563,2.159,2.1591,2.1591,2.1588,2.1587,2.1587,2.1586,2.1616,2.1617,2.1618,0,0,0,0,0,0,0,0,0,0,0,0,0,2.1534,2.1511,2.1563,2.1565,2.1566,2.159,2.1591,2.1591,2.1588,2.1587,2.1587,2.1586,2.1615,2.1617,2.1619,2.1643,0,0,2.1624,2.1625,0,0,0,0,0,0,0,0,2.1533,2.1536,2.1564,2.1565,2.1566,2.1585,2.1583,2.1609,2.1588,2.158,2.1587,2.1586,2.1606,2.1609,2.1615,2.1644,2.1646,2.1624,2.1625,2.1626,2.1627,0,0,0,0,0,0,0,2.1531,2.1535,2.1574,2.1565,2.1566,2.1566,2.1568,2.1588,2.1596,2.158,2.158,2.1583,2.1606,2.1614,2.1616,2.1646,2.1624,2.1626,2.1627,2.1628,2.1698,2.1699,0,0,0,0,0,0,2.1529,2.1534,2.1573,2.1574,2.1547,2.1567,2.157,2.1579,2.1596,2.1598,2.1584,2.1583,2.1611,2.1614,2.1617,2.1648,2.1626,2.1628,2.1629,2.1697,2.1698,2.1699,0,0,0,0,0,0,2.1528,2.1532,2.1572,2.1554,2.1559,2.1569,2.1579,2.158,2.1588,2.1599,2.1601,2.159,2.1611,2.1615,2.1637,2.1649,2.1629,2.163,2.1696,2.1698,2.1699,2.1708,0,0,0,0,0,0,2.1526,2.1532,2.154,2.1554,2.156,2.159,2.158,2.1581,2.159,2.159,2.1605,2.1606,2.161,2.1634,2.1639,2.1651,2.1632,2.1695,2.1697,2.1698,2.1707,2.171,2.1712,0,0,0,0,0,2.1524,2.1542,2.1541,2.1546,2.1571,2.1591,2.1594,2.1598,2.1591,2.1601,2.1608,2.1606,2.1647,2.1637,2.1641,2.1654,2.1695,2.1697,2.1698,2.1706,2.1709,2.1712,0,0,0,0,0,0,2.1529,2.1544,2.1543,2.1565,2.1577,2.159,2.1602,2.1601,2.1615,2.1614,2.1619,2.1622,2.1645,2.1652,2.164,2.168,2.167,2.1673,2.1674,2.1677,2.168,2.1678,2.1633,0,0,0,0,0,2.1533,2.1547,2.1559,2.1578,2.1584,2.1592,2.1601,2.1603,2.1615,2.162,2.1629,2.1642,2.1658,2.1668,2.1683,2.1708,2.1712,2.172,2.1722,2.1724,2.1727,2.1742,2.1746,2.1705,2.1705,2.1705,0,0,2.1541,2.155,2.1559,2.158,2.1589,2.1604,2.1596,2.1613,2.1625,2.1623,2.1645,2.1652,2.1666,2.1691,2.1702,2.1697,2.1739,2.1727,2.1728,2.173,2.1745,2.1748,2.1752,2.1706,2.1706,2.1706,0,0,2.1563,2.1571,2.1588,2.1598,2.1612,2.1618,2.1622,2.1636,2.1641,2.1663,2.1662,2.1677,2.1704,2.1715,2.1723,2.1752,2.1751,2.1757,2.177,2.1785,2.1788,2.1791,2.1802,2.1806,2.1759,2.1759,2.1759,0,2.1571,2.1594,2.1597,2.1615,2.1624,2.1624,2.1642,2.1651,2.167,2.1677,2.1672,2.1706,2.1716,2.1743,2.175,2.1757,2.1763,2.1755,2.1787,2.179,2.1793,2.1804,2.1808,2.176,2.176,2.176,2.176,0,2.1603,2.1619,2.1632,2.165,2.1661,2.1678,2.1686,2.1697,2.1699,2.1705,2.1729,2.174,2.1758,2.1765,2.1767,2.1793,2.179,2.1786,2.1776,2.1798,2.1808,2.1812,2.1761,2.1761,2.1761,2.176,0,0,2.1628,2.1649,2.1654,2.1663,2.1679,2.1692,2.1711,2.1728,2.1738,2.1751,2.1767,2.1791,2.1788,2.1798,2.1801,2.1814,2.1838,2.1809,2.1809,2.1814,2.1869,2.1872,2.1877,2.1837,2.1838,2.1838,2.1868,0,2.1652,2.1684,2.1689,2.1717,2.1733,2.1734,2.175,2.1763,2.177,2.1785,2.1793,2.1809,2.1803,2.181,2.1823,2.1832,2.1849,2.183,2.1853,2.1854,2.1849,2.1882,2.1885,2.1912,2.1872,2.1873,2.1873,0,2.1685,2.1699,2.1729,2.1745,2.1752,2.1766,2.1784,2.1798,2.1813,2.1817,2.1829,2.1831,2.1851,2.1841,2.187,2.1857,2.1867,2.1873,2.1874,2.1876,2.1864,2.1885,2.1921,2.1925,2.1879,2.1879,2.1878,0,2.1701,2.1728,2.175,2.1757,2.1776,2.1786,2.1795,2.1809,2.182,2.1835,2.1843,2.1861,2.187,2.1885,2.1892,2.1884,2.1921,2.1911,2.1925,2.1925,2.1933,2.1932,2.1971,2.1939,2.1939,2.1939,2.1939,0,2.1728,2.1746,2.1757,2.1771,2.1792,2.1798,2.1819,2.1828,2.1841,2.1856,2.1858,2.1873,2.1882,2.1898,2.1904,2.1928,2.1932,2.1937,2.1938,2.1937,2.1936,2.1943,2.1942,2.194,2.194,2.1939,2.1939,0,2.1749,2.1757,2.1781,2.1797,2.1802,2.1817,2.1831,2.1845,2.1853,2.1873,2.1878,2.189,2.191,2.1918,2.1943,2.1947,2.1974,2.1974,2.1969,2.1969,2.1984,2.1982,2.2028,2.2035,2.1998,2.1999,2.1999,0,2.1765,2.178,2.1798,2.1809,2.1817,2.1834,2.1846,2.1853,2.1865,2.1884,2.1896,2.1915,2.1932,2.1964,2.1975,2.1994,2.1995,2.2009,2.1997,2.1996,2.1996,2.1995,2.1997,2.2011,2.2012,2.2012,2.2012,0,2.1794,2.1798,2.1814,2.1832,2.1846,2.186,2.1874,2.1883,2.1893,2.1907,2.1927,2.1939,2.1965,2.1985,2.2005,2.2015,2.2016,2.2016,2.2021,2.2019,2.2016,2.2019,2.1975,2.2015,2.2015,2.2014,2.2014,2.2014,2.1814,2.1828,2.1843,2.1861,2.1873,2.1886,2.19,2.191,2.1927,2.1948,2.1952,2.1973,2.199,2.2017,2.2027,2.2045,2.2042,2.2048,2.205,2.2051,2.2053,2.2013,2.2049,2.2049,2.2049,2.2049,2.2049,0,2.1844,2.1854,2.1871,2.1891,2.1906,2.1905,2.1922,2.1934,2.1953,2.1968,2.1984,2.2008,2.2028,2.2042,2.2062,2.2074,2.2075,2.2079,2.2079,2.2081,2.2054,2.2048,2.2078,2.2078,2.2078,2.2078,2.2078,2.2078,2.1861,2.1884,2.189,2.1919,2.1929,2.195,2.196,2.1973,2.1985,2.2012,2.2028,2.2037,2.2052,2.2074,2.2092,2.2096,2.2104,2.2108,2.2112,2.2086,2.2083,2.208,2.2075,2.211,2.211,2.2137,2.2137,2.2138]},{"header":{"parameterUnit":"m.s-1","parameterCategory":1,"la1":30.2991,"la2":30.254,"lo1":-89.0895,"lo2":-89.0444,"dy":0.0017,"dx":0.0017,"nx":28,"ny":28,"refTime":"2023-08-13T03:00:00:Z","depth":0,"parameterNumber":3,"parameterNumberName":"V-component_of_WINDS"},"data":[0,0,0,0,0,0,0,0,0,0,0,0,0,0,0,0,0,0,0,0,0,0,0,0,0,0,0,0,0,0,0,0,0,0,0,0,0,0,0,0,0,0,0,0,0,0,0,0,0,0,0,0,0,0,0,0,0,0,-0.7733,-0.7733,0,-0.776,-0.7761,-0.7761,-0.7769,-0.7769,-0.7769,-0.7769,-0.7796,-0.7797,-0.7798,0,0,0,0,0,0,0,0,0,0,0,0,0,-0.7689,-0.7689,-0.7733,-0.7733,-0.7734,-0.776,-0.7761,-0.7761,-0.7769,-0.7769,-0.7769,-0.7769,-0.7796,-0.7797,-0.7798,0,0,0,0,0,0,0,0,0,0,0,0,0,-0.7711,-0.769,-0.7733,-0.7741,-0.7742,-0.776,-0.7761,-0.7761,-0.7769,-0.7769,-0.7769,-0.7769,-0.7796,-0.7797,-0.7798,-0.781,0,0,-0.7802,-0.7803,0,0,0,0,0,0,0,0,-0.771,-0.7713,-0.7739,-0.774,-0.7742,-0.7761,-0.7755,-0.7778,-0.7769,-0.7759,-0.7769,-0.7769,-0.7785,-0.7787,-0.7792,-0.7812,-0.7813,-0.7802,-0.7803,-0.7804,-0.7804,0,0,0,0,0,0,0,-0.7708,-0.7712,-0.7744,-0.774,-0.7741,-0.7743,-0.7746,-0.7759,-0.7773,-0.776,-0.776,-0.7764,-0.7785,-0.7791,-0.7793,-0.7813,-0.7802,-0.7803,-0.7804,-0.7805,-0.7846,-0.7846,0,0,0,0,0,0,-0.7705,-0.771,-0.7743,-0.7745,-0.7725,-0.7744,-0.7748,-0.7755,-0.7772,-0.7775,-0.7764,-0.7764,-0.7789,-0.7792,-0.7794,-0.7811,-0.7804,-0.7805,-0.7806,-0.7845,-0.7846,-0.7846,0,0,0,0,0,0,-0.7704,-0.7708,-0.7742,-0.7728,-0.7732,-0.7745,-0.7754,-0.7756,-0.7762,-0.7776,-0.7778,-0.7767,-0.7789,-0.7792,-0.7807,-0.7812,-0.7805,-0.7807,-0.7845,-0.7845,-0.7846,-0.7843,0,0,0,0,0,0,-0.7703,-0.7708,-0.7712,-0.7728,-0.7733,-0.7754,-0.7754,-0.7756,-0.7764,-0.7764,-0.778,-0.7782,-0.7789,-0.7805,-0.7808,-0.7813,-0.7808,-0.7845,-0.7845,-0.7846,-0.7843,-0.7844,-0.7844,0,0,0,0,0,-0.7701,-0.771,-0.7712,-0.7716,-0.7739,-0.7754,-0.7757,-0.7765,-0.7764,-0.7769,-0.7778,-0.7781,-0.7811,-0.7806,-0.781,-0.7816,-0.7844,-0.7845,-0.7846,-0.7843,-0.7843,-0.7844,0,0,0,0,0,0,-0.7694,-0.7712,-0.7715,-0.7729,-0.774,-0.7755,-0.7761,-0.7766,-0.7777,-0.7777,-0.7787,-0.779,-0.7804,-0.7811,-0.7806,-0.7829,-0.7828,-0.7829,-0.7824,-0.7825,-0.7826,-0.7824,-0.7809,0,0,0,0,0,-0.7694,-0.7705,-0.772,-0.7731,-0.7736,-0.7748,-0.7755,-0.776,-0.7772,-0.7777,-0.7787,-0.7798,-0.7811,-0.7818,-0.783,-0.7844,-0.7848,-0.785,-0.7851,-0.7851,-0.7852,-0.7862,-0.7864,-0.7848,-0.7848,-0.7848,0,0,-0.7694,-0.7705,-0.7711,-0.7729,-0.7739,-0.775,-0.7752,-0.7763,-0.7772,-0.7779,-0.7793,-0.7801,-0.7815,-0.783,-0.7837,-0.7836,-0.7858,-0.7852,-0.7852,-0.7853,-0.7863,-0.7864,-0.7866,-0.7849,-0.7849,-0.7849,0,0,-0.77,-0.7709,-0.772,-0.7729,-0.7744,-0.7752,-0.7754,-0.777,-0.7775,-0.779,-0.7796,-0.7807,-0.7827,-0.7837,-0.7844,-0.7856,-0.786,-0.7859,-0.7862,-0.7872,-0.7873,-0.7874,-0.7879,-0.7881,-0.7861,-0.7861,-0.7861,0,-0.7698,-0.7715,-0.7724,-0.7736,-0.7745,-0.7752,-0.7763,-0.7772,-0.7789,-0.7795,-0.7795,-0.7821,-0.7831,-0.7849,-0.7852,-0.7857,-0.7861,-0.7858,-0.7872,-0.7873,-0.7875,-0.788,-0.7881,-0.786,-0.786,-0.7861,-0.7861,0,-0.7713,-0.7725,-0.7732,-0.7749,-0.7758,-0.777,-0.7781,-0.7789,-0.7795,-0.7803,-0.7819,-0.7831,-0.7846,-0.7851,-0.7855,-0.787,-0.7869,-0.787,-0.7869,-0.7876,-0.7881,-0.7883,-0.786,-0.786,-0.786,-0.786,0,0,-0.7713,-0.7737,-0.774,-0.7748,-0.7766,-0.7775,-0.7788,-0.7803,-0.781,-0.7822,-0.7834,-0.7851,-0.7853,-0.7862,-0.7868,-0.7876,-0.7886,-0.7876,-0.7877,-0.7878,-0.7904,-0.7904,-0.7906,-0.7889,-0.7889,-0.7889,-0.7903,0,-0.7722,-0.7745,-0.7754,-0.7772,-0.7785,-0.7793,-0.7804,-0.7816,-0.7824,-0.7836,-0.7845,-0.7858,-0.7859,-0.7864,-0.7873,-0.7883,-0.7891,-0.7882,-0.79,-0.79,-0.7897,-0.7908,-0.7907,-0.792,-0.7905,-0.7906,-0.7906,0,-0.7735,-0.7748,-0.7768,-0.7785,-0.7791,-0.78,-0.7816,-0.7827,-0.7841,-0.7847,-0.7858,-0.7864,-0.7878,-0.7876,-0.7896,-0.7889,-0.7897,-0.7904,-0.7904,-0.7907,-0.7904,-0.7911,-0.7924,-0.7926,-0.7909,-0.7909,-0.7908,0,-0.7735,-0.7757,-0.7773,-0.778,-0.78,-0.7807,-0.7816,-0.783,-0.7839,-0.7853,-0.7859,-0.7874,-0.7882,-0.7894,-0.7905,-0.7902,-0.7924,-0.7922,-0.793,-0.793,-0.7934,-0.7934,-0.7949,-0.7938,-0.7938,-0.7938,-0.7938,0,-0.7743,-0.7755,-0.7773,-0.7782,-0.7796,-0.7808,-0.7821,-0.7831,-0.7844,-0.7856,-0.7863,-0.7874,-0.7887,-0.79,-0.7908,-0.7925,-0.7928,-0.7934,-0.7936,-0.7933,-0.7933,-0.7939,-0.7938,-0.7939,-0.7939,-0.7939,-0.7939,0,-0.7745,-0.7757,-0.7775,-0.7793,-0.7798,-0.7808,-0.7824,-0.7834,-0.7844,-0.7859,-0.7863,-0.7878,-0.7893,-0.7905,-0.7925,-0.7931,-0.7949,-0.795,-0.7944,-0.7945,-0.7952,-0.7952,-0.7972,-0.7976,-0.7962,-0.7962,-0.7962,0,-0.775,-0.776,-0.778,-0.7789,-0.7798,-0.7812,-0.7821,-0.7833,-0.7843,-0.7862,-0.787,-0.7886,-0.79,-0.7925,-0.7937,-0.7953,-0.7956,-0.7962,-0.7958,-0.7956,-0.7957,-0.7957,-0.7958,-0.7963,-0.7963,-0.7963,-0.7963,0,-0.7758,-0.7764,-0.7778,-0.7795,-0.7806,-0.782,-0.7833,-0.784,-0.7855,-0.7865,-0.7882,-0.7893,-0.7914,-0.7931,-0.7948,-0.7958,-0.7963,-0.7964,-0.7967,-0.7965,-0.7961,-0.7964,-0.7946,-0.7964,-0.7964,-0.7963,-0.7963,-0.7963,-0.7762,-0.7772,-0.7788,-0.7804,-0.7816,-0.7828,-0.7839,-0.7851,-0.7865,-0.7883,-0.789,-0.7907,-0.7923,-0.7947,-0.7957,-0.7972,-0.7972,-0.7975,-0.7976,-0.7977,-0.7978,-0.7958,-0.7975,-0.7975,-0.7975,-0.7975,-0.7975,0,-0.7771,-0.7783,-0.7797,-0.7816,-0.7829,-0.7834,-0.7849,-0.786,-0.7875,-0.789,-0.7904,-0.7923,-0.794,-0.7955,-0.7972,-0.7981,-0.7984,-0.7985,-0.7985,-0.7987,-0.7976,-0.7972,-0.7983,-0.7983,-0.7983,-0.7983,-0.7983,-0.7983,-0.7777,-0.7794,-0.7803,-0.7826,-0.7837,-0.7855,-0.7864,-0.7876,-0.7888,-0.791,-0.7924,-0.7934,-0.7949,-0.7968,-0.7984,-0.7988,-0.7994,-0.7995,-0.8,-0.7989,-0.7988,-0.7987,-0.7984,-0.7996,-0.7996,-0.801,-0.801,-0.801]}]]